Location: Bednik
(45.3500°N, 16.3833°E)
Time: 04:44:25
(UTC+00:00)

Cosmos 2242 Rocket - Pass Details

Date: 08 August 2020
Orbit: 618 x 652 km, 82.5° (Epoch: 23 September)

Event Time Altitude Azimuth Distance (km) Brightness Sun altitude
Rises 20:40:04 0° 351° (N) 2,930 8.1 -21.1°
Reaches altitude 10° 20:42:19 10° 351° (N) 2,013 7.1 -21.3°
Maximum altitude 20:46:47 89° 258° (WSW) 630 3.5 -21.8°
Enters shadow 20:47:30 63° 174° (S) 698 3.5 -21.9°
